Humidity-temperature Sensor

Selected Measurement Type: Air Temperature

 
Air Temperature [°C]     6 entries per hour
Showing data from 4/12/2021 (19:00:00 Z) to 4/9/2021 (00:01:00 Z)
Previous Next [ Day | 3-Days | 7-Days ]
First Last
Prev [ Day | 3-Days | 7-Days ] Next
First Last

Start Time:     :
End Time:     :     
Time (in GMT) :00 :50 :40 :30 :20 :10
Previous Next [ Day | 3-Days | 7-Days ]
First Last
Prev [ Day | 3-Days | 7-Days ] Next
First Last


123 => good data
MM => data is determined as missing
-- => data not received/configured
Back to Top Back to Top
4/12/2021 19:00 to 18:10 28.17 28.17 28.14 28.31 28.26 28.05
4/12/2021 18:00 to 17:10 28.01 28.00 28.09 28.22 28.05 28.10
4/12/2021 17:00 to 16:10 27.95 28.08 27.82 27.98 27.84 27.92
4/12/2021 16:00 to 15:10 27.95 27.86 28.10 27.81 27.93 28.04
4/12/2021 15:00 to 14:10 27.90 27.96 27.95 27.89 27.97 28.01
4/12/2021 14:00 to 13:10 28.20 28.01 28.05 27.99 28.01 27.71
4/12/2021 13:00 to 12:10 27.65 27.59 27.68 27.73 27.64 27.50
4/12/2021 12:00 to 11:10 27.54 27.63 27.66 27.90 27.36 27.57
4/12/2021 11:00 to 10:10 27.64 27.63 27.39 27.50 27.60 27.63
4/12/2021 10:00 to 9:10 27.42 27.38 27.36 27.50 27.43 27.43
4/12/2021 09:00 to 8:10 27.30 27.47 27.41 27.52 27.42 27.43
4/12/2021 08:00 to 7:10 27.49 27.42 27.35 27.52 27.57 27.48
4/12/2021 07:00 to 6:10 27.49 27.49 27.58 27.57 27.55 27.62
4/12/2021 06:00 to 5:10 27.67 27.68 27.74 27.75 27.69 27.72
4/12/2021 05:00 to 4:10 27.68 27.73 27.70 27.81 27.70 27.80
4/12/2021 04:00 to 3:10 27.79 27.70 27.70 27.80 27.64 27.76
4/12/2021 03:00 to 2:10 27.79 27.76 27.75 27.88 27.83 27.73
4/12/2021 02:00 to 1:10 27.76 27.85 27.97 28.02 28.05 28.06
4/12/2021 01:00 to 0:10 27.96 28.05 27.99 28.29 28.47 29.11
4/12/2021 00:00 to 23:10 29.51 29.86 29.90 29.57 29.45 28.79
4/11/2021 23:00 to 22:10 28.04 28.07 28.16 28.14 27.94 27.96
4/11/2021 22:00 to 21:10 28.07 27.98 28.09 27.97 28.00 27.89
4/11/2021 21:00 to 20:10 27.92 28.21 28.07 28.00 27.99 27.44
4/11/2021 20:00 to 19:10 27.46 27.27 27.10 26.95 27.01 26.79
4/11/2021 19:00 to 18:10 26.81 26.66 26.61 26.35 26.27 25.89
4/11/2021 18:00 to 17:10 25.68 25.86 26.15 25.50 25.33 25.23
4/11/2021 17:00 to 16:10 24.98 24.97 24.95 25.06 24.85 25.57
4/11/2021 16:00 to 15:10 25.79 25.88 26.37 26.08 26.09 25.48
4/11/2021 15:00 to 14:10 26.05 26.41 26.78 27.03 27.01 27.11
4/11/2021 14:00 to 13:10 27.07 27.05 27.01 27.07 27.01 26.97
4/11/2021 13:00 to 12:10 26.81 26.89 26.91 26.87 26.84 26.79
4/11/2021 12:00 to 11:10 26.83 26.84 26.88 26.82 26.76 26.81
4/11/2021 11:00 to 10:10 26.81 26.83 26.86 26.86 26.78 26.81
4/11/2021 10:00 to 9:10 26.87 26.84 26.88 26.88 26.95 26.87
4/11/2021 09:00 to 8:10 26.97 26.95 26.98 26.95 26.88 26.90
4/11/2021 08:00 to 7:10 26.99 27.02 27.00 26.99 26.98 27.05
4/11/2021 07:00 to 6:10 27.04 27.10 27.09 27.12 27.20 27.16
4/11/2021 06:00 to 5:10 27.18 27.19 27.24 27.27 27.32 27.35
4/11/2021 05:00 to 4:10 27.30 27.39 27.40 27.35 27.38 27.44
4/11/2021 04:00 to 3:10 27.39 27.30 27.34 27.34 27.45 27.43
4/11/2021 03:00 to 2:10 27.42 27.44 27.44 27.44 27.41 27.40
4/11/2021 02:00 to 1:10 27.30 27.39 27.40 27.49 27.57 27.50
4/11/2021 01:00 to 0:10 27.49 27.44 27.46 27.56 27.76 28.15
4/11/2021 00:00 to 23:10 28.01 28.03 27.97 27.72 27.99 28.05
4/10/2021 23:00 to 22:10 28.13 28.04 27.93 27.73 27.93 27.94
4/10/2021 22:00 to 21:10 27.63 27.57 27.66 27.65 27.66 27.67
4/10/2021 21:00 to 20:10 27.51 27.57 27.71 27.50 27.26 27.43
4/10/2021 20:00 to 19:10 27.37 27.06 27.02 26.81 26.55 26.45
4/10/2021 19:00 to 18:10 26.11 25.96 26.17 26.34 26.72 26.76
4/10/2021 18:00 to 17:10 26.61 26.38 26.32 26.18 25.84 25.84
4/10/2021 17:00 to 16:10 26.05 25.98 25.83 26.08 26.30 26.10
4/10/2021 16:00 to 15:10 26.04 26.44 27.23 27.08 27.15 27.15
4/10/2021 15:00 to 14:10 26.97 27.02 27.10 26.90 26.95 26.91
4/10/2021 14:00 to 13:10 27.04 27.18 26.83 26.83 26.79 26.74
4/10/2021 13:00 to 12:10 26.67 26.63 26.77 26.66 26.57 26.66
4/10/2021 12:00 to 11:10 26.65 26.59 26.55 26.58 26.40 26.45
4/10/2021 11:00 to 10:10 26.52 26.39 26.39 26.51 26.41 26.43
4/10/2021 10:00 to 9:10 26.37 26.37 26.60 26.43 26.39 26.34
4/10/2021 09:00 to 8:10 26.56 26.67 26.80 26.76 26.84 26.92
4/10/2021 08:00 to 7:10 26.89 26.84 26.84 26.75 26.83 26.80
4/10/2021 07:00 to 6:10 26.77 27.00 26.79 26.90 26.92 26.96
4/10/2021 06:00 to 5:10 26.86 26.85 26.86 26.88 26.89 27.00
4/10/2021 05:00 to 4:10 26.90 26.98 27.01 26.91 26.95 27.05
4/10/2021 04:00 to 3:10 26.98 27.01 27.23 26.92 27.01 27.02
4/10/2021 03:00 to 2:10 26.99 26.92 26.99 27.06 27.13 26.99
4/10/2021 02:00 to 1:10 27.08 27.01 26.95 27.18 26.85 27.15
4/10/2021 01:00 to 0:10 27.04 26.81 26.78 26.69 26.72 26.75
4/10/2021 00:00 to 23:10 26.97 27.06 26.99 26.98 27.04 27.29
4/9/2021 23:00 to 22:10 27.40 27.03 27.01 27.02 26.86 26.58
4/9/2021 22:00 to 21:10 26.62 26.44 26.28 26.39 26.54 26.65
4/9/2021 21:00 to 20:10 26.81 27.10 26.89 26.94 26.91 26.84
4/9/2021 20:00 to 19:10 26.87 26.58 26.63 26.65 26.45 26.69
4/9/2021 19:00 to 18:10 26.86 26.84 26.60 26.79 27.00 26.89
4/9/2021 18:00 to 17:10 27.00 26.83 26.88 26.51 26.52 26.57
4/9/2021 17:00 to 16:10 26.71 26.58 26.66 26.47 26.46 26.53
4/9/2021 16:00 to 15:10 26.47 26.51 26.55 26.30 26.19 26.08
4/9/2021 15:00 to 14:10 26.02 26.04 25.97 25.84 25.71 25.56
4/9/2021 14:00 to 13:10 25.44 25.14 25.10 24.59 24.48 24.34
4/9/2021 13:00 to 12:10 24.35 24.10 24.27 24.29 24.27 24.02
4/9/2021 12:00 to 11:10 24.09 23.93 23.86 23.73 23.63 23.55
4/9/2021 11:00 to 10:10 23.59 23.41 23.54 23.72 23.78 23.71
4/9/2021 10:00 to 9:10 23.39 23.64 23.48 23.63 23.34 23.10
4/9/2021 09:00 to 8:10 23.17 23.14 23.10 23.11 23.27 23.17
4/9/2021 08:00 to 7:10 23.03 23.40 23.58 23.43 23.72 24.04
4/9/2021 07:00 to 6:10 24.24 24.33 24.54 24.49 24.49 24.38
4/9/2021 06:00 to 5:10 25.04 24.97 25.22 25.28 25.40 25.44
4/9/2021 05:00 to 4:10 25.40 25.37 25.58 25.54 25.71 25.85
4/9/2021 04:00 to 3:10 25.71 25.82 26.20 26.12 26.08 26.23
4/9/2021 03:00 to 2:10 26.38 26.13 26.11 26.14 26.11 26.30
4/9/2021 02:00 to 1:10 26.53 26.68 26.57 26.73 26.54 26.55
4/9/2021 01:00 to 0:10 26.53 26.41 26.34 26.18 26.17 26.12